Total_Precipitation_Accumulation
0.02 0.07 0.24 0.38 0.37 0.36 0.34 0.34 0.33 0.28 0.27 0.32 0.36 0.39 0.41 0.38 0.36 0.33 0.32 0.33 0.36 0.39 0.44 0.50 0.50 0.50 0.46 0.42 0.38 0.34 0.34 0.37 0.37 0.35 0.37 0.42 0.44 0.40 0.37 0.34 0.25 0.33 0.50
0.02 0.08 0.23 0.31 0.32 0.34 0.33 0.32 0.30 0.26 0.25 0.30 0.35 0.35 0.35 0.35 0.36 0.37 0.35 0.34 0.35 0.39 0.46 0.52 0.50 0.47 0.46 0.40 0.34 0.28 0.26 0.25 0.27 0.27 0.24 0.22 0.37 0.43 0.37 0.39 0.36 0.57 0.65
0.01 0.07 0.16 0.25 0.29 0.31 0.31 0.30 0.28 0.27 0.27 0.30 0.32 0.32 0.31 0.33 0.34 0.38 0.39 0.38 0.37 0.37 0.39 0.44 0.46 0.42 0.39 0.32 0.27 0.23 0.23 0.19 0.18 0.19 0.18 0.13 0.31 0.52 0.48 0.46 0.45 0.64 0.65
0.02 0.06 0.10 0.20 0.27 0.30 0.30 0.30 0.30 0.30 0.31 0.36 0.35 0.32 0.33 0.34 0.34 0.37 0.38 0.36 0.38 0.37 0.37 0.38 0.36 0.34 0.29 0.22 0.20 0.20 0.20 0.18 0.13 0.11 0.06 0.07 0.29 0.55 0.58 0.53 0.50 0.54 0.59
0.02 0.05 0.12 0.22 0.27 0.29 0.31 0.31 0.31 0.30 0.34 0.40 0.41 0.38 0.36 0.36 0.36 0.37 0.37 0.36 0.34 0.34 0.34 0.34 0.31 0.29 0.26 0.23 0.21 0.21 0.20 0.17 0.13 0.08 0.03 0.06 0.23 0.50 0.49 0.48 0.44 0.49 0.53
0.02 0.04 0.11 0.22 0.29 0.30 0.32 0.31 0.31 0.32 0.36 0.42 0.42 0.41 0.39 0.41 0.39 0.36 0.36 0.36 0.33 0.32 0.32 0.32 0.30 0.30 0.27 0.24 0.23 0.26 0.27 0.24 0.14 0.06 0.04 0.06 0.14 0.34 0.42 0.47 0.46 0.45 0.42
0.03 0.05 0.12 0.24 0.32 0.33 0.34 0.34 0.34 0.35 0.38 0.41 0.42 0.43 0.44 0.44 0.43 0.39 0.33 0.33 0.31 0.30 0.31 0.31 0.29 0.30 0.30 0.28 0.27 0.29 0.34 0.28 0.15 0.16 0.12 0.09 0.13 0.26 0.35 0.44 0.46 0.45 0.44
0.04 0.07 0.15 0.30 0.35 0.35 0.36 0.35 0.37 0.39 0.41 0.42 0.41 0.43 0.47 0.47 0.42 0.39 0.35 0.34 0.32 0.31 0.29 0.26 0.23 0.23 0.25 0.28 0.29 0.30 0.32 0.22 0.17 0.24 0.26 0.22 0.22 0.30 0.37 0.41 0.45 0.46 0.50
0.06 0.09 0.18 0.31 0.37 0.42 0.43 0.41 0.41 0.42 0.44 0.45 0.45 0.44 0.46 0.48 0.45 0.40 0.35 0.35 0.34 0.31 0.30 0.25 0.22 0.19 0.20 0.20 0.21 0.25 0.26 0.22 0.26 0.38 0.33 0.36 0.31 0.41 0.46 0.42 0.41 0.47 0.51
0.10 0.14 0.21 0.29 0.36 0.41 0.45 0.44 0.44 0.44 0.45 0.46 0.48 0.48 0.45 0.45 0.46 0.43 0.37 0.36 0.35 0.33 0.31 0.28 0.25 0.22 0.21 0.18 0.16 0.18 0.20 0.18 0.20 0.29 0.39 0.34 0.34 0.51 0.59 0.53 0.45 0.45 0.50
0.17 0.21 0.26 0.32 0.37 0.44 0.47 0.45 0.49 0.50 0.51 0.53 0.52 0.50 0.52 0.47 0.44 0.41 0.37 0.34 0.34 0.33 0.31 0.29 0.27 0.26 0.23 0.18 0.15 0.15 0.14 0.11 0.17 0.26 0.32 0.29 0.36 0.55 0.69 0.63 0.59 0.51 0.50
0.19 0.24 0.29 0.34 0.40 0.47 0.51 0.52 0.55 0.55 0.52 0.53 0.48 0.49 0.51 0.52 0.48 0.39 0.37 0.36 0.35 0.36 0.36 0.34 0.31 0.27 0.24 0.18 0.15 0.17 0.11 0.07 0.06 0.09 0.13 0.18 0.26 0.42 0.64 0.71 0.69 0.65 0.61
0.18 0.25 0.31 0.37 0.42 0.49 0.53 0.54 0.52 0.54 0.51 0.51 0.47 0.46 0.48 0.53 0.51 0.46 0.42 0.42 0.40 0.36 0.37 0.38 0.39 0.35 0.33 0.28 0.23 0.22 0.15 0.12 0.09 0.06 0.06 0.11 0.15 0.24 0.40 0.54 0.71 0.76 0.77
0.20 0.28 0.34 0.41 0.49 0.55 0.56 0.57 0.53 0.50 0.49 0.47 0.48 0.47 0.48 0.48 0.46 0.42 0.38 0.35 0.34 0.31 0.30 0.31 0.33 0.35 0.39 0.37 0.30 0.24 0.23 0.22 0.17 0.13 0.09 0.12 0.14 0.18 0.29 0.39 0.54 0.70 0.81
0.19 0.29 0.38 0.45 0.51 0.59 0.65 0.61 0.57 0.51 0.46 0.45 0.48 0.47 0.46 0.46 0.43 0.40 0.37 0.36 0.33 0.28 0.25 0.24 0.23 0.22 0.24 0.28 0.29 0.25 0.24 0.22 0.21 0.21 0.17 0.17 0.16 0.16 0.24 0.33 0.42 0.58 0.73
0.21 0.31 0.40 0.50 0.54 0.59 0.66 0.64 0.59 0.55 0.51 0.51 0.48 0.46 0.46 0.46 0.44 0.40 0.37 0.34 0.34 0.31 0.27 0.24 0.22 0.20 0.16 0.15 0.14 0.15 0.20 0.22 0.24 0.25 0.21 0.20 0.19 0.16 0.20 0.28 0.36 0.48 0.66
0.25 0.34 0.43 0.49 0.56 0.60 0.64 0.68 0.65 0.60 0.56 0.56 0.53 0.49 0.49 0.50 0.50 0.47 0.43 0.36 0.33 0.31 0.30 0.29 0.28 0.25 0.20 0.16 0.13 0.11 0.11 0.13 0.17 0.21 0.21 0.21 0.23 0.20 0.19 0.24 0.32 0.38 0.51
0.29 0.38 0.49 0.53 0.58 0.62 0.64 0.72 0.70 0.68 0.60 0.60 0.62 0.58 0.53 0.52 0.53 0.53 0.52 0.48 0.42 0.36 0.33 0.33 0.31 0.29 0.25 0.21 0.17 0.14 0.13 0.12 0.12 0.13 0.15 0.18 0.22 0.24 0.23 0.26 0.31 0.37 0.42
0.26 0.36 0.51 0.58 0.62 0.65 0.66 0.73 0.79 0.76 0.71 0.66 0.67 0.66 0.59 0.57 0.57 0.55 0.53 0.53 0.56 0.52 0.42 0.36 0.32 0.27 0.25 0.22 0.20 0.18 0.16 0.14 0.14 0.13 0.12 0.11 0.13 0.18 0.23 0.25 0.28 0.33 0.36
0.26 0.36 0.50 0.64 0.71 0.74 0.79 0.79 0.88 0.89 0.79 0.73 0.69 0.71 0.68 0.62 0.61 0.62 0.58 0.53 0.54 0.58 0.54 0.44 0.36 0.30 0.27 0.25 0.22 0.21 0.19 0.17 0.15 0.13 0.11 0.10 0.09 0.12 0.17 0.20 0.23 0.25 0.29
0.32 0.38 0.50 0.61 0.75 0.80 0.86 0.85 0.82 0.86 0.85 0.78 0.72 0.73 0.80 0.74 0.64 0.63 0.65 0.63 0.57 0.54 0.51 0.46 0.41 0.36 0.31 0.28 0.29 0.29 0.25 0.21 0.19 0.16 0.13 0.11 0.09 0.09 0.13 0.18 0.20 0.21 0.24
0.33 0.37 0.48 0.62 0.73 0.77 0.77 0.83 0.81 0.83 0.82 0.82 0.77 0.76 0.81 0.85 0.77 0.68 0.65 0.65 0.63 0.57 0.53 0.47 0.44 0.43 0.39 0.32 0.31 0.34 0.33 0.29 0.23 0.17 0.14 0.12 0.10 0.09 0.10 0.13 0.18 0.19 0.19
0.30 0.34 0.40 0.56 0.73 0.79 0.76 0.86 0.92 0.98 1.01 0.96 0.89 0.82 0.83 0.86 0.82 0.75 0.68 0.63 0.63 0.61 0.57 0.52 0.48 0.44 0.43 0.37 0.30 0.40 0.49 0.38 0.24 0.17 0.14 0.12 0.10 0.09 0.08 0.09 0.13 0.18 0.20
0.32 0.36 0.38 0.47 0.62 0.81 0.84 0.86 0.91 0.95 0.95 0.96 0.90 0.82 0.82 0.87 0.89 0.81 0.77 0.71 0.63 0.58 0.54 0.52 0.51 0.48 0.48 0.46 0.37 0.33 0.36 0.37 0.41 0.29 0.18 0.18 0.17 0.14 0.11 0.09 0.10 0.14 0.21
0.39 0.46 0.45 0.49 0.57 0.76 0.79 0.77 0.84 0.87 0.87 0.92 0.97 0.88 0.86 0.90 0.93 0.93 0.87 0.82 0.77 0.67 0.57 0.52 0.51 0.53 0.52 0.49 0.44 0.38 0.33 0.28 0.30 0.40 0.29 0.22 0.26 0.25 0.20 0.16 0.16 0.17 0.20
0.44 0.55 0.54 0.57 0.57 0.68 0.81 0.75 0.75 0.79 0.82 0.87 0.92 0.96 0.95 0.96 0.95 0.95 0.92 0.87 0.82 0.79 0.71 0.60 0.53 0.52 0.52 0.48 0.45 0.44 0.44 0.43 0.35 0.37 0.36 0.24 0.22 0.21 0.23 0.25 0.23 0.23 0.25